BEIDOU 17 (C31)

Last updated on Oct. 23, 2020, 5:57 a.m. UTC

1 40549U 15019A   20296.44306613 -.00000165  00000-0  00000+0 0  9996
2 40549  52.8675 319.7389 0040586 193.7045 132.6421  1.00259386 20385
UTC
Height (km)
Latitude
Longitude
Inclination
Orbital Period
UTC large
Height (km)
Speed (km/s)
/
Latitude / Longitude
Inclination (degrees)
Orbital Period (minutes)
Azimuth
Elevation
Range (km)
Doppler Factor
iOS Compass Heading
iOS Angle

Next 30 passes for location: Hong Kong

Rise time Rise Azimuth (degrees) Set time Set Azimuth (degrees) Duration Max altitude (degrees)

No matching passes for this satellites